Theta_e
317 316 316 316 316 316 315 315 315 314 313 313 312 312 312 312 311 311 311 311 311 312 312 312 313 314 316 316 316 315 314 314 314 314 314 315 315 315 316 316 316 316 315 315 315 314 314 314 314 313 313 313 313 313 313 313 313 313 312 311 310 309 308 309 311 312 312 313 313 313 313 313 312 312 312 312 312 312 312 312 312 312 312 312 311 311
316 315 315 315 316 315 315 314 314 313 312 312 311 311 311 311 311 311 311 311 311 312 312 312 313 314 316 316 315 314 313 313 313 313 313 314 314 315 315 315 315 315 315 315 314 314 314 313 313 313 312 313 313 313 313 313 313 312 312 311 310 309 308 308 308 309 310 311 311 312 312 312 312 312 312 312 311 311 311 312 312 312 311 311 311 311
315 315 315 315 315 314 314 313 313 312 311 311 311 310 310 310 310 310 310 311 311 312 312 312 313 314 315 315 314 313 312 312 312 312 313 313 314 314 314 314 315 314 314 314 314 313 313 313 312 312 312 312 312 312 312 312 312 312 311 311 310 309 308 308 308 308 308 308 309 310 310 311 311 312 312 311 311 311 311 311 312 311 311 310 310 310
313 314 314 314 314 313 313 312 311 310 310 310 309 309 309 310 310 310 311 311 311 312 312 312 313 313 314 314 313 313 312 312 312 312 313 314 314 314 314 314 314 314 314 314 313 313 312 312 312 311 311 311 312 312 312 312 312 312 311 310 309 308 308 308 308 307 307 308 308 308 308 309 310 311 311 311 311 311 311 311 311 311 310 309 309 309
313 313 313 313 313 312 311 310 310 309 309 309 309 309 309 309 310 310 311 311 312 312 312 312 313 313 313 313 312 312 312 312 312 312 313 314 314 315 314 314 314 314 313 313 312 312 312 311 311 311 311 311 311 311 311 311 311 311 310 310 309 308 308 307 307 307 307 307 307 307 308 308 309 309 310 310 310 310 310 310 310 309 309 308 308 308
313 313 313 313 312 311 310 310 309 308 308 308 308 308 308 309 309 310 311 312 312 312 312 312 312 312 312 312 312 312 312 312 311 312 312 313 313 314 314 314 313 313 313 312 312 312 311 311 311 310 310 310 310 310 311 311 310 310 310 309 308 307 307 307 307 306 306 307 307 307 307 307 308 308 308 308 308 308 308 308 307 307 307 307 307 307
312 312 312 312 311 311 310 309 309 308 308 307 307 308 308 309 309 310 311 312 312 312 312 312 312 312 311 311 311 311 311 311 311 311 311 312 312 312 313 313 313 313 312 312 311 311 311 311 310 310 310 310 310 310 310 310 310 309 309 308 307 306 306 306 306 306 306 306 306 306 307 307 307 306 306 306 306 306 305 306 305 305 305 305 305 305
312 312 312 311 310 310 309 309 308 308 307 307 307 308 308 309 309 310 311 311 311 312 311 311 311 311 311 311 311 311 311 311 311 311 311 311 311 311 312 312 312 312 311 311 311 311 311 310 310 309 309 309 309 309 309 309 309 308 308 307 306 305 305 305 305 305 305 305 306 306 306 306 305 305 305 305 304 304 304 304 304 304 304 304 304 304
311 311 311 310 309 309 308 308 308 308 307 307 307 307 308 308 309 309 310 310 310 311 311 311 311 311 311 311 311 311 310 310 310 310 311 311 311 311 311 311 311 311 311 311 311 310 310 310 309 309 309 308 308 309 309 309 308 308 307 306 305 305 304 304 304 304 305 305 305 305 305 304 304 304 303 303 303 303 303 303 303 303 303 303 303 302
310 310 309 309 309 308 307 307 308 308 308 307 307 307 308 308 308 309 309 309 310 310 310 311 311 311 311 311 311 310 310 310 310 310 310 311 311 311 310 310 310 310 310 310 310 310 309 309 309 308 308 308 308 308 308 308 308 307 306 306 305 304 303 303 303 304 304 304 304 304 303 303 303 303 303 303 302 302 303 303 303 303 302 302 302 302
309 309 308 308 308 307 307 307 307 308 307 307 307 307 308 308 308 309 309 309 310 310 310 311 311 311 311 311 310 310 309 309 309 309 310 310 310 310 310 310 310 310 309 309 309 309 309 309 308 308 308 307 307 308 308 307 307 307 306 305 304 304 303 303 303 303 303 303 303 303 303 302 302 302 302 302 302 302 302 303 303 302 302 302 301 301
309 308 307 307 306 306 306 307 307 307 307 307 307 307 308 308 309 309 309 310 310 311 311 311 311 311 311 310 309 309 309 308 308 309 309 309 309 309 309 309 309 309 309 309 309 309 308 308 308 308 307 307 307 307 307 307 307 306 306 305 304 303 303 302 302 302 302 302 302 302 302 302 302 302 302 302 302 302 302 302 302 302 302 301 300 300
308 307 306 305 305 305 305 305 306 306 306 306 307 307 308 308 309 309 310 310 311 311 311 311 311 310 310 309 308 308 308 308 308 309 309 309 309 309 309 309 309 309 309 308 308 308 308 308 307 307 307 307 307 307 307 307 306 306 305 304 304 303 302 302 302 302 302 302 302 302 302 302 302 302 301 301 301 301 301 301 301 301 300 299 298 298
307 307 306 305 305 305 305 305 305 306 306 307 307 308 308 309 309 310 310 310 311 311 311 311 310 309 309 308 308 307 307 307 308 308 308 308 309 309 309 308 308 308 308 308 308 308 308 307 307 307 307 306 306 306 306 306 306 305 305 304 303 302 302 302 302 302 302 302 302 302 302 301 301 301 300 300 299 299 299 299 299 299 298 297 296 295
306 305 304 303 304 305 305 305 306 306 307 307 308 308 308 309 309 309 310 310 311 311 311 310 310 309 308 307 307 307 306 307 307 307 308 308 308 308 308 308 308 308 308 307 307 307 307 307 307 307 306 306 306 306 306 306 305 305 304 303 303 302 302 302 302 302 302 302 301 301 301 300 300 299 298 297 297 297 297 297 296 296 295 294 293 293
306 304 303 303 304 305 306 306 306 306 307 307 308 308 308 309 309 309 310 310 310 310 310 310 309 308 308 307 307 306 306 306 307 307 307 307 308 308 308 308 307 307 307 307 307 307 307 307 306 306 306 306 306 305 305 305 305 304 304 303 303 302 302 302 302 301 301 301 300 300 299 298 297 296 295 295 294 294 294 294 294 293 292 292 291 291
305 304 303 303 304 305 305 306 306 306 307 307 307 308 308 309 309 309 309 310 310 310 310 310 310 309 308 307 307 307 306 306 306 306 306 307 307 307 307 307 307 307 307 307 307 307 307 306 306 306 306 305 305 305 304 304 304 304 303 303 303 302 302 302 301 301 300 299 298 297 296 295 294 293 292 292 292 292 292 292 291 291 290 290 290 290
304 304 303 303 303 304 305 305 306 306 306 307 307 308 308 309 309 309 309 309 310 310 310 310 310 310 310 309 308 308 307 307 306 306 306 306 306 307 307 307 307 307 307 307 306 306 306 306 306 305 305 305 304 304 304 303 303 303 302 302 302 302 301 301 300 299 298 297 296 295 294 293 292 291 291 290 290 290 290 290 290 290 289 289 289 289
304 303 303 303 303 303 304 304 305 305 306 306 307 308 308 309 309 309 309 309 309 310 310 310 310 311 311 311 310 310 309 308 307 306 306 306 306 306 306 306 306 306 306 306 306 306 306 306 305 305 305 304 304 303 303 302 302 302 302 301 301 301 300 299 298 297 296 295 294 293 292 291 290 290 290 290 289 289 289 289 289 289 289 289 289 289
303 303 303 302 302 302 303 303 304 305 305 306 307 308 308 308 308 308 308 309 309 309 309 309 310 311 311 311 311 310 309 308 307 306 306 305 305 305 305 305 305 305 306 306 306 306 305 305 305 305 304 304 303 303 302 302 302 301 301 300 300 299 298 297 296 295 294 293 292 291 290 290 290 289 289 289 289 289 289 289 289 289 289 289 289 289
302 303 304 304 303 303 303 304 305 305 306 306 307 307 308 308 308 308 308 309 309 309 309 309 310 310 311 310 310 310 309 308 307 306 305 305 305 305 305 305 305 305 305 305 305 305 305 305 305 304 304 303 303 303 302 302 301 301 300 300 299 298 297 296 295 293 292 291 291 290 290 290 289 289 289 289 289 289 289 289 289 289 289 289 289 289
303 303 304 304 303 303 304 304 305 305 305 306 306 306 307 307 308 308 308 309 309 309 310 310 310 310 310 310 309 309 308 308 307 306 305 304 304 304 304 304 304 304 305 305 305 305 305 304 304 304 304 303 303 302 302 301 301 300 300 300 299 298 297 295 293 292 291 290 290 290 289 289 289 289 289 289 289 289 289 289 288 288 289 289 289 289
304 304 304 304 304 303 304 304 304 305 305 305 305 306 306 307 307 308 308 309 309 309 309 309 309 309 309 309 308 308 308 307 306 305 304 304 304 304 304 304 304 304 304 304 304 304 304 304 304 303 303 303 302 302 301 301 300 300 300 299 298 297 296 294 292 291 290 290 289 289 289 289 289 289 289 289 289 289 288 288 288 288 289 289 289 289
304 304 304 304 303 303 303 303 304 304 304 304 305 305 306 306 307 307 307 307 307 308 308 308 308 308 308 308 307 307 307 307 306 305 304 304 304 304 304 304 304 304 304 304 304 303 303 303 303 303 303 302 302 301 301 300 300 300 299 299 298 296 295 293 291 290 289 289 289 289 289 289 289 289 289 289 288 288 288 288 288 288 288 288 288 288
305 304 303 303 303 303 303 303 304 304 304 304 304 305 305 306 306 306 306 306 306 306 306 306 307 307 307 307 307 307 307 306 306 305 304 304 303 303 304 304 303 303 304 304 303 303 303 303 303 303 302 302 301 301 300 300 299 299 299 298 297 295 293 292 290 289 289 289 288 288 289 288 288 288 288 288 288 288 288 288 288 288 288 288 288 288
304 304 303 302 302 302 303 303 304 304 304 304 304 305 305 306 306 305 305 305 305 305 305 305 306 306 306 306 306 306 306 306 306 305 305 304 304 303 303 303 303 303 303 303 303 303 303 303 302 302 302 301 301 300 300 299 299 299 298 297 296 294 292 291 289 289 288 288 288 288 288 288 288 288 288 288 288 288 288 288 288 288 288 288 288 288
304 303 303 302 302 302 303 303 304 304 304 304 304 305 305 305 305 305 305 305 305 305 305 305 306 306 306 306 306 306 306 306 306 305 305 304 304 304 304 304 303 303 302 302 302 302 302 302 302 302 301 301 300 300 299 299 299 298 298 297 295 293 291 290 289 288 288 288 288 288 288 288 288 288 288 288 288 288 288 288 288 288 288 288 289 289
304 303 303 302 302 302 303 303 304 304 304 304 304 305 305 305 305 305 305 305 306 305 305 305 306 306 306 307 307 307 306 306 305 305 305 304 303 304 304 303 303 302 302 302 302 302 302 301 301 301 301 300 300 299 299 299 298 298 297 296 294 292 290 289 288 288 288 288 288 288 288 288 288 288 288 288 288 288 288 288 288 288 288 289 289 289
304 303 303 302 302 302 303 303 304 304 304 304 304 305 305 305 305 305 306 306 306 305 305 306 306 306 307 307 307 306 306 305 305 305 304 303 303 304 304 303 302 302 302 302 301 301 301 301 301 301 300 300 299 299 299 298 298 297 296 295 293 291 289 288 288 287 287 287 287 288 288 287 287 288 288 288 288 288 288 288 288 288 289 289 289 289
304 303 303 303 302 302 303 303 303 304 304 304 304 304 305 305 305 305 305 305 305 305 305 306 306 306 306 306 306 305 305 305 305 305 304 303 303 304 304 303 302 302 302 301 301 300 300 300 301 300 300 300 299 299 299 298 297 296 295 293 291 290 289 288 287 287 287 287 287 287 287 287 287 287 287 288 288 288 288 288 288 288 289 289 289 289
303 303 303 303 302 302 302 303 303 303 304 304 304 304 304 304 305 305 305 305 305 305 305 305 305 306 306 306 306 305 306 306 306 305 304 304 304 304 304 303 303 302 302 301 301 300 300 300 300 300 300 300 299 299 298 297 296 295 294 292 290 289 288 287 287 287 287 287 287 287 287 287 287 287 287 287 288 288 288 288 288 289 289 289 289 289
303 303 303 302 302 302 302 303 303 303 304 304 303 303 303 304 304 304 304 304 304 304 304 304 305 305 306 306 306 307 308 307 306 305 305 304 304 304 304 303 303 302 302 301 301 301 300 300 300 300 300 299 299 298 298 296 295 294 292 291 289 288 288 287 287 287 287 287 287 287 287 287 287 287 287 287 288 288 288 288 288 289 289 289 289 289
303 302 302 302 302 302 302 302 303 303 303 303 303 303 303 303 303 304 304 304 304 304 304 304 304 304 305 305 306 306 307 307 306 305 305 304 304 304 304 303 302 302 301 301 300 300 300 300 300 300 300 299 298 297 296 295 294 292 291 289 288 288 287 287 287 287 287 287 287 287 288 287 287 287 287 288 288 288 288 288 288 289 289 289 289 289
302 302 302 301 301 301 302 302 302 302 303 303 303 303 303 303 303 303 303 304 304 304 304 303 303 304 304 305 305 305 305 306 305 305 304 304 303 304 303 303 302 301 301 300 300 299 299 299 300 300 299 299 298 296 295 294 292 291 289 288 288 287 287 287 287 287 287 287 287 287 288 287 288 288 288 288 288 288 288 288 289 289 289 289 289 289
302 301 301 301 301 301 301 302 302 302 302 302 302 302 302 302 302 303 303 303 303 303 303 303 303 303 304 304 305 305 305 305 305 304 303 303 303 303 302 302 302 301 301 300 300 299 299 299 299 299 299 298 297 295 293 292 291 289 288 288 287 287 287 287 287 287 287 287 287 287 287 287 288 288 288 288 288 288 288 288 289 289 289 289 289 289
301 301 301 301 301 301 301 301 302 302 302 302 302 302 302 302 302 302 303 303 303 303 303 303 302 303 303 303 304 304 304 304 304 303 302 302 302 301 301 301 301 301 301 300 300 300 299 299 299 299 298 297 296 294 292 290 289 288 288 287 287 287 287 287 287 287 287 287 287 287 287 287 288 288 288 288 288 288 288 288 289 289 289 289 289 289
300 300 301 301 301 301 301 301 301 302 302 302 302 302 302 302 302 302 302 302 302 302 302 302 302 302 302 302 302 302 302 302 301 301 301 301 300 300 300 300 301 300 300 300 300 300 299 299 299 299 298 297 295 292 290 289 289 288 288 287 287 287 287 287 287 287 287 287 287 287 287 287 287 288 288 288 288 288 288 288 288 289 289 289 289 289
300 300 300 300 301 301 301 301 301 302 302 302 302 302 302 302 302 302 302 302 302 302 301 301 301 301 301 301 301 301 301 300 300 300 299 299 299 299 300 300 300 300 299 299 299 299 299 299 298 298 297 296 294 291 289 289 288 288 288 288 287 287 287 287 287 287 287 287 287 287 287 287 287 288 288 288 288 288 288 288 288 289 289 289 289 289
300 300 300 300 300 301 301 301 301 302 302 302 302 302 302 302 302 302 302 301 301 301 301 301 300 300 300 300 300 300 300 300 299 299 299 299 299 299 299 299 298 298 298 297 297 297 297 297 298 297 297 295 292 290 288 288 288 288 288 288 287 287 287 287 287 287 287 287 287 287 287 287 287 288 288 288 288 288 288 288 288 288 289 289 289 289
299 299 300 300 300 301 301 301 301 301 301 301 301 301 301 301 301 301 301 301 300 300 300 300 300 300 299 300 300 299 299 299 299 299 299 298 298 298 298 298 297 297 296 295 295 295 296 296 296 296 295 293 291 289 288 288 288 288 288 288 288 288 288 288 287 287 287 287 287 287 287 288 288 288 288 288 288 288 288 288 288 288 289 289 289 289
299 299 299 300 300 300 300 300 300 300 301 301 301 301 301 301 301 301 300 300 300 299 299 299 299 299 299 299 299 298 298 298 298 298 298 298 298 298 297 297 296 295 294 293 293 294 294 295 294 294 293 291 290 288 288 288 288 288 288 288 289 289 288 288 288 288 288 288 288 288 288 288 288 288 288 288 288 288 288 288 288 288 289 289 289 289
299 299 299 299 299 299 299 299 300 300 300 300 300 300 300 300 300 300 300 299 299 299 298 298 298 298 298 298 298 298 297 297 297 297 298 297 297 297 296 295 294 293 292 291 292 292 293 293 293 292 291 290 288 287 287 287 288 288 288 289 289 289 288 288 288 288 288 288 288 288 288 288 288 288 288 288 288 288 288 288 288 288 289 289 289 289
299 299 298 298 298 298 299 299 299 299 299 299 299 299 299 299 299 299 299 298 298 298 298 298 297 297 297 297 297 297 297 297 297 297 297 297 296 296 295 294 293 292 290 290 291 291 292 292 291 291 289 288 287 287 287 287 288 288 288 289 289 288 289 289 288 288 288 288 288 288 288 288 288 288 288 288 288 288 288 288 289 289 289 289 289 289
299 298 298 298 298 298 298 298 298 299 299 299 299 298 298 298 298 298 297 297 297 297 297 297 297 297 296 296 296 296 296 296 296 296 296 296 295 295 294 292 291 290 289 289 290 290 291 290 290 289 288 287 287 287 287 287 288 288 288 288 289 289 289 289 289 289 289 289 289 289 288 288 288 288 288 288 288 288 288 288 289 289 289 289 289 288
298 298 298 298 298 298 298 298 298 298 298 298 298 298 298 297 297 297 296 296 296 296 296 296 296 295 295 295 295 295 295 295 295 295 295 295 294 294 292 291 290 289 289 289 289 289 290 290 289 288 288 287 287 287 287 287 287 288 288 288 289 289 289 289 289 289 289 289 289 289 289 289 289 289 289 289 289 289 289 289 288 289 289 289 289 288
298 298 298 298 298 297 297 297 297 297 297 297 297 297 297 297 296 296 295 295 294 294 294 294 294 294 294 294 294 294 295 295 295 295 295 294 294 292 291 290 289 289 288 288 288 288 289 288 288 288 287 287 287 287 288 288 288 288 288 288 288 289 289 289 289 289 289 289 289 289 289 289 289 290 290 290 290 290 289 289 289 289 289 289 289 289
298 298 298 298 297 297 297 297 297 297 297 297 297 297 297 296 295 295 294 294 293 293 292 293 293 293 294 294 294 294 294 294 294 294 294 293 292 291 290 289 289 288 288 287 287 288 288 287 287 287 287 287 288 288 288 288 288 288 288 288 289 289 289 289 290 290 290 290 290 290 290 290 290 291 291 291 290 290 290 290 289 289 289 289 289 289
298 298 298 297 297 297 297 296 296 296 296 296 296 296 296 295 295 294 294 293 292 292 291 292 292 292 293 293 293 293 294 294 294 293 293 292 291 290 289 289 288 288 287 287 287 287 287 287 287 287 287 287 288 288 288 288 288 288 288 288 289 289 289 289 290 290 290 290 290 290 291 291 291 291 291 291 291 291 290 290 290 290 289 289 289 289
298 298 297 297 297 297 297 296 296 296 296 296 296 296 296 295 294 294 293 293 292 291 291 291 291 292 292 292 292 293 293 293 293 293 292 291 290 289 289 288 288 287 287 286 286 286 287 287 287 287 287 287 288 288 288 288 288 288 288 288 288 289 289 289 289 289 290 290 291 291 291 291 291 291 291 291 291 291 291 290 290 290 289 289 289 289
297 297 297 297 297 297 297 296 296 296 296 296 296 296 295 294 294 293 293 292 291 291 290 290 290 291 291 292 292 292 292 292 292 292 291 291 290 289 288 288 287 287 286 286 286 286 286 286 287 287 288 288 288 288 288 288 288 288 288 288 288 289 289 289 289 290 290 291 291 291 291 291 291 291 291 291 291 291 291 290 290 290 289 289 289 288
297 297 297 297 297 297 297 296 296 296 296 296 296 296 295 294 293 292 292 291 291 290 289 289 290 290 291 291 292 292 292 292 292 291 291 290 289 289 288 287 287 286 286 286 286 286 286 286 287 287 287 288 288 288 288 288 288 288 288 289 289 289 289 289 290 290 291 292 292 291 291 290 290 290 291 291 291 291 291 290 290 289 289 289 288 288
Wind_Speed
28 27 26 25 25 26 26 26 25 25 25 25 25 26 26 25 25 24 24 24 24 24 23 22 21 20 20 20 22 24 25 26 26 26 25 24 24 26 28 29 30 29 27 26 25 25 24 24 23 23 22 22 21 20 20 20 20 19 19 19 19 20 21 23 24 25 25 25 24 24 24 23 22 21 21 21 21 21 21 21 22 22 22 20 19 17
24 24 24 24 25 26 27 26 26 26 26 26 26 26 26 25 25 24 24 24 24 23 22 21 20 19 19 19 20 22 24 25 25 25 25 25 26 27 29 30 29 28 26 26 25 24 24 23 23 22 22 21 21 21 20 21 20 20 20 20 20 20 21 22 24 26 28 29 29 28 26 25 23 22 22 21 21 21 22 22 22 22 21 19 17 16
24 24 25 25 27 28 28 28 27 27 27 26 26 26 25 25 24 24 23 23 22 21 21 20 20 19 19 18 18 19 21 23 24 26 27 28 28 28 29 28 27 26 25 25 24 23 23 22 22 22 22 21 21 21 21 21 21 21 20 20 19 19 20 21 23 25 28 30 31 31 30 28 26 24 23 22 22 22 23 24 24 22 20 18 16 16
26 26 27 27 28 29 30 29 29 28 28 27 26 25 24 23 23 22 22 21 20 20 19 19 20 20 19 17 16 16 18 21 24 27 29 30 31 31 30 28 27 26 25 24 24 23 23 22 22 22 21 21 21 20 20 21 21 21 20 19 19 19 20 22 24 26 28 29 30 30 29 28 27 26 25 23 22 22 23 24 24 23 21 19 17 16
28 28 28 29 30 30 30 30 29 28 27 26 25 24 23 22 21 20 20 19 19 19 18 19 20 21 20 18 16 15 17 20 23 27 29 31 32 32 31 30 29 28 27 26 25 24 23 23 22 22 21 20 20 20 20 20 21 20 20 19 19 19 21 23 25 26 27 28 28 27 27 27 26 25 25 24 24 24 24 25 24 24 22 20 18 17
29 29 30 30 30 31 30 29 28 27 26 25 23 22 21 21 20 20 19 19 19 19 19 19 20 20 20 19 18 17 17 19 23 26 28 30 31 31 31 31 30 30 29 28 26 25 25 24 23 22 21 20 20 20 20 20 20 20 19 19 19 20 21 23 24 25 26 26 26 25 25 24 24 24 24 24 24 24 24 24 24 23 21 20 19 18
30 30 31 31 31 31 30 29 28 26 25 23 22 21 21 21 21 21 21 20 20 20 20 20 20 20 20 20 19 18 18 20 23 25 27 29 30 31 31 31 31 31 30 29 28 27 26 25 23 22 21 20 20 19 19 19 19 19 19 19 19 20 21 22 23 24 24 24 24 23 22 22 21 21 22 23 23 23 23 22 22 21 20 19 18 18
31 31 31 31 31 30 29 28 26 25 24 23 22 22 23 23 23 23 23 22 22 22 21 21 20 20 20 19 19 19 20 22 24 25 26 27 28 29 30 31 31 31 30 30 29 28 27 25 24 22 21 20 20 19 19 19 19 19 19 19 19 20 21 22 23 23 23 23 22 21 21 20 20 20 21 21 22 22 21 21 20 20 19 19 19 18
31 31 32 31 31 29 28 26 25 23 22 22 22 23 23 24 25 25 24 24 23 23 22 21 21 20 20 20 20 20 21 23 24 25 26 26 27 27 28 29 29 30 30 29 29 28 27 25 24 23 21 20 19 19 19 19 19 19 19 19 19 20 21 22 22 22 22 21 21 20 20 20 20 20 20 21 21 21 21 20 20 20 20 19 19 19
31 31 31 31 30 29 27 25 24 23 21 20 20 21 22 24 24 24 24 23 23 22 21 21 20 20 20 19 20 20 22 23 25 25 25 25 26 26 26 27 28 28 29 29 28 28 27 26 24 23 21 20 19 19 19 19 20 20 19 19 20 20 20 21 21 21 20 20 20 20 20 20 20 20 20 20 20 20 20 20 20 20 20 20 20 20
32 32 31 30 30 28 27 25 24 23 21 20 20 20 21 22 23 23 22 21 20 20 19 19 20 20 19 19 19 21 22 24 25 25 25 25 26 26 26 26 27 28 28 28 28 28 27 26 25 23 21 20 19 19 19 20 20 20 20 20 19 20 20 20 20 20 20 19 19 20 20 20 20 20 20 20 20 20 21 21 21 21 21 21 21 21
32 32 31 30 29 27 26 26 25 23 21 20 21 22 22 21 20 20 20 19 18 18 18 19 19 19 19 19 20 21 23 24 25 26 26 26 26 26 26 26 27 27 28 29 29 28 27 26 25 23 21 20 19 19 19 20 20 20 20 19 19 19 19 19 20 20 20 20 20 20 20 21 21 21 21 21 21 21 22 22 22 22 22 22 22 22
32 32 30 29 28 27 26 26 25 24 23 23 24 24 23 20 18 18 18 18 17 17 18 18 19 19 19 20 21 22 24 25 26 26 26 27 27 27 27 27 27 27 28 29 29 29 28 26 25 23 21 20 20 19 20 20 20 20 20 20 19 19 19 19 20 20 20 20 20 21 21 22 22 22 22 23 23 23 23 23 24 23 23 23 23 22
32 31 30 29 28 28 28 27 27 27 27 26 25 23 21 20 19 19 19 19 18 18 18 18 18 18 19 20 22 23 25 26 27 27 27 28 28 27 27 28 28 28 28 29 29 29 28 27 25 23 21 20 20 19 20 20 20 20 20 20 20 20 20 20 20 20 21 21 21 22 22 23 23 23 23 24 24 24 24 24 25 24 24 23 23 22
31 31 30 30 30 30 29 29 29 29 28 26 24 22 21 21 21 20 20 20 19 18 18 18 18 18 19 21 23 24 26 27 28 29 29 29 29 29 29 29 29 29 29 30 30 29 28 27 25 23 21 20 20 19 19 20 20 21 21 21 21 20 20 20 21 21 21 21 22 23 23 23 24 24 24 24 24 24 25 25 25 24 24 23 22 22
31 30 30 31 31 31 31 31 30 29 27 25 23 23 23 23 22 22 21 21 20 19 19 19 19 19 20 22 24 25 27 28 29 30 30 31 31 30 30 30 30 30 30 30 30 29 28 27 25 23 22 20 19 19 19 20 20 21 21 21 21 21 21 21 21 21 21 22 23 23 23 23 23 23 23 24 24 24 24 24 24 23 22 21 21 21
30 30 30 31 32 32 32 31 30 28 26 25 24 24 24 24 23 23 22 22 22 21 20 20 20 21 22 23 25 26 27 29 29 30 31 32 32 32 32 31 31 31 31 30 30 29 28 27 25 23 22 20 19 19 19 19 20 21 21 21 21 21 20 20 20 21 21 22 23 23 23 23 23 23 23 23 23 23 23 23 22 21 20 20 19 19
30 30 30 30 31 32 32 31 29 27 25 24 24 24 24 24 24 24 24 24 24 23 23 22 22 22 23 25 26 27 27 29 30 31 33 34 34 33 33 32 32 32 31 31 30 29 28 26 25 23 22 20 19 19 19 19 20 20 21 21 20 20 20 20 20 21 21 22 22 23 22 22 22 21 21 21 22 22 21 21 20 19 18 18 18 18
31 30 30 30 30 31 31 30 29 26 24 23 23 23 24 25 25 25 25 25 25 25 25 24 23 23 23 23 24 25 26 27 29 32 34 35 35 35 34 33 33 32 31 31 30 29 27 26 24 23 21 20 20 19 19 19 19 20 20 20 19 19 19 19 20 20 21 21 22 22 21 21 20 20 20 20 20 20 20 19 18 17 17 17 17 17
31 31 31 30 30 30 30 30 29 26 24 22 22 23 24 25 25 26 26 26 26 26 26 25 24 24 23 22 22 23 24 26 28 31 34 35 36 35 35 34 34 33 32 31 30 28 27 26 24 23 21 21 20 20 19 19 19 19 19 19 19 19 19 19 19 20 20 21 21 21 20 20 19 19 19 19 19 19 18 17 17 16 16 16 16 16
31 32 31 30 29 29 30 30 28 26 24 22 23 24 25 25 26 26 26 26 26 26 26 26 25 24 23 22 22 22 23 24 27 30 32 34 36 36 35 35 34 33 32 31 30 28 27 26 25 23 22 21 20 20 20 19 19 19 19 19 18 18 18 19 19 19 20 20 20 19 19 18 18 18 18 18 18 17 17 16 16 15 15 15 15 16
31 32 31 30 29 29 29 29 27 25 24 24 24 25 25 25 26 26 26 26 26 26 26 25 25 24 23 23 22 22 22 23 24 27 30 33 35 35 35 35 34 33 32 31 30 29 28 26 25 23 22 21 21 20 20 20 20 19 19 19 18 18 18 18 18 19 19 19 19 18 18 18 17 17 17 17 17 16 16 15 15 15 15 15 15 15
31 31 30 30 29 29 28 27 27 26 25 25 25 25 25 25 26 26 25 25 25 25 25 24 24 23 23 23 22 22 22 22 22 24 27 32 34 34 34 34 33 33 32 31 30 29 28 26 25 24 22 21 21 21 20 20 20 19 19 19 18 18 18 18 18 18 18 18 18 17 17 17 17 17 17 16 16 15 15 14 14 14 14 14 14 14
30 30 30 30 29 29 28 27 27 27 27 26 26 25 25 25 25 25 24 24 24 24 24 23 23 23 23 23 23 23 23 22 22 23 25 28 31 32 32 32 32 32 32 31 30 29 28 27 26 24 23 22 21 21 21 21 20 20 19 19 18 18 17 17 17 17 17 17 17 17 16 16 16 16 16 15 15 14 14 14 13 13 13 13 13 14
29 29 29 29 29 28 27 27 27 27 27 27 26 25 25 25 25 25 24 24 24 24 24 23 23 23 24 24 24 24 23 23 22 23 24 26 28 29 30 30 30 31 31 30 29 28 28 27 26 25 23 22 22 21 21 21 20 20 19 19 18 18 17 17 17 17 17 17 16 16 16 16 16 15 15 15 14 14 13 13 13 13 13 13 13 13
29 29 29 29 29 28 28 27 27 27 28 27 26 26 26 26 26 26 26 26 26 25 24 24 24 24 24 24 24 24 24 24 23 23 24 25 26 28 28 28 29 29 30 29 29 28 28 27 26 25 24 23 22 22 21 21 20 20 19 19 19 18 17 17 16 16 16 16 16 16 16 15 15 15 14 14 13 13 13 13 12 12 12 12 13 13
28 28 29 29 29 28 28 28 28 28 28 28 27 27 27 28 28 27 27 27 27 26 25 25 25 25 25 25 25 25 24 24 24 24 24 24 25 27 27 27 27 28 28 28 28 28 27 27 26 25 24 23 22 21 21 20 20 20 20 19 19 18 17 17 16 16 16 16 16 15 15 15 15 14 14 13 13 13 13 12 12 12 12 12 12 12
28 28 28 28 29 29 29 29 29 28 28 28 28 28 29 29 29 29 29 29 28 26 26 26 26 26 26 26 26 25 25 25 25 24 24 24 25 26 26 26 26 26 27 27 27 27 27 26 26 25 23 22 22 21 20 20 21 21 20 20 19 18 17 17 16 16 16 15 15 15 15 14 14 14 13 13 13 13 13 12 12 12 12 12 12 12
27 28 28 28 29 29 29 29 29 29 29 29 29 30 30 30 30 30 30 29 28 27 27 27 27 27 27 26 25 25 25 26 25 25 24 24 25 25 25 25 25 25 26 26 26 27 27 26 26 24 23 22 21 21 20 21 21 21 21 20 19 18 17 17 16 16 16 15 15 15 14 14 14 13 13 13 13 13 13 13 13 13 12 12 12 12
28 28 28 28 28 29 29 29 29 29 29 29 30 30 31 31 31 30 29 28 28 28 28 27 27 27 26 25 25 26 27 27 26 25 24 24 25 25 25 25 25 25 26 26 27 27 28 27 25 24 23 22 21 21 21 21 21 21 21 20 19 18 18 17 16 16 16 15 15 14 14 14 13 13 13 13 13 13 13 13 13 13 13 12 12 12
28 28 28 27 27 28 28 29 29 29 29 30 30 31 31 31 31 30 30 29 28 28 28 27 27 27 27 26 27 27 28 28 27 26 24 25 25 26 25 25 25 26 26 26 27 28 28 27 26 24 23 22 21 21 21 22 22 21 21 20 19 18 18 17 16 16 16 15 15 14 14 14 13 13 13 13 13 13 13 13 13 13 13 12 12 13
28 28 27 27 27 27 27 28 28 29 29 30 30 31 32 32 32 31 31 30 29 28 28 27 28 28 28 27 27 28 28 27 26 25 24 25 26 26 26 25 26 26 26 26 26 26 25 26 25 24 23 22 22 21 21 22 22 21 21 20 19 18 17 17 17 16 16 15 15 14 14 14 14 14 14 13 13 13 13 14 13 13 13 13 13 13
28 28 27 27 27 27 27 28 28 29 29 30 31 32 32 32 32 32 32 31 30 29 28 28 28 29 28 28 27 27 27 25 24 24 24 25 26 27 27 26 26 26 26 26 26 25 25 25 24 23 22 22 21 21 21 21 21 21 20 20 19 18 18 17 17 17 16 16 15 15 14 14 14 14 14 14 14 14 14 14 14 14 13 13 13 13
29 29 28 28 28 28 28 29 29 29 30 30 31 32 33 33 33 33 32 32 31 30 29 29 29 29 29 28 27 27 27 25 24 23 23 24 26 27 27 27 27 27 27 27 26 26 26 25 24 22 21 21 21 21 21 21 21 21 20 20 19 18 18 18 17 17 16 16 15 15 15 15 15 14 14 14 14 14 14 14 14 14 13 13 13 13
30 30 30 29 29 29 30 30 30 30 30 31 31 32 33 33 33 33 33 32 31 31 30 29 29 29 28 27 27 26 26 24 23 22 22 23 25 26 26 26 26 26 27 27 26 26 26 25 24 23 21 20 20 21 21 21 21 21 20 20 19 19 18 18 18 17 16 16 16 15 15 15 15 14 14 14 14 14 14 14 14 14 13 13 13 13
31 31 31 31 31 31 31 31 31 31 31 31 32 32 33 33 33 33 33 32 31 31 30 29 28 28 27 26 26 24 23 22 20 20 20 21 22 23 24 25 25 25 25 26 26 25 25 25 24 22 22 21 21 21 21 21 21 21 21 20 19 19 19 18 18 17 16 16 15 15 15 14 14 14 14 14 14 15 15 14 14 14 13 13 13 13
33 32 32 32 31 32 32 32 32 32 32 32 32 32 33 33 33 33 32 32 31 30 30 29 28 27 26 25 24 23 21 20 18 18 18 18 19 20 21 22 22 23 23 24 24 24 24 24 23 23 22 22 21 21 21 21 21 21 21 20 20 19 19 18 18 17 17 16 15 15 14 14 14 14 14 15 15 15 15 15 14 14 13 13 13 13
34 34 33 32 32 32 32 33 33 32 32 32 32 32 32 33 33 32 32 31 31 30 29 28 27 26 25 23 22 21 20 19 18 17 17 17 17 18 19 19 20 20 21 21 22 22 23 23 24 23 23 22 21 20 20 21 21 21 21 20 20 19 19 19 18 17 17 16 16 15 15 15 15 15 15 15 15 15 15 15 14 14 14 14 13 13
36 35 34 33 33 32 32 33 32 32 32 32 32 32 32 32 32 32 31 31 30 29 29 28 26 25 24 22 21 20 20 19 18 18 18 18 18 18 18 19 19 19 19 19 20 21 22 22 23 23 22 21 20 19 20 20 21 20 20 20 20 19 19 19 18 18 17 17 16 16 16 15 15 15 15 15 15 15 15 15 14 14 14 14 14 14
37 36 35 34 33 32 32 32 32 32 32 32 32 32 32 32 32 31 31 30 30 29 28 27 26 25 23 22 21 20 20 19 19 19 19 19 19 19 19 19 19 18 18 19 20 21 21 22 22 21 20 20 19 19 19 20 20 20 20 20 20 20 19 18 18 18 17 17 16 16 16 16 16 16 16 15 15 15 15 15 15 15 15 15 14 14
38 37 36 35 33 32 32 32 32 32 32 32 32 31 31 31 31 31 31 30 30 29 28 27 26 25 23 22 21 21 20 20 20 20 20 20 20 20 20 19 19 18 18 19 20 21 21 21 21 21 20 19 18 18 18 19 20 20 20 20 19 18 18 18 18 17 17 17 16 16 16 16 16 16 15 15 15 15 15 15 16 16 16 15 15 15
38 37 36 35 34 33 33 33 32 32 32 31 31 30 30 30 31 30 30 30 30 29 28 27 26 25 24 23 22 22 21 21 20 20 20 20 20 20 19 19 19 18 19 19 20 21 21 21 21 21 20 19 18 18 18 18 19 20 20 19 18 17 17 18 18 17 17 17 17 16 16 16 16 16 15 15 15 15 16 16 16 16 16 16 16 15
39 38 37 35 35 34 34 33 33 32 31 31 30 30 29 29 29 29 29 29 29 29 28 27 26 25 25 24 23 23 22 22 21 21 20 20 20 20 19 19 19 19 19 20 21 21 22 22 21 21 20 19 18 18 18 19 19 20 20 19 18 18 19 18 18 17 17 17 16 16 16 16 16 15 15 15 15 16 16 16 16 16 16 16 16 16
39 38 37 36 35 35 34 34 33 32 32 31 30 29 29 29 29 28 28 29 28 28 28 27 26 26 25 25 25 24 24 23 22 22 21 21 21 20 20 19 19 19 20 21 21 22 22 22 22 21 20 19 19 19 19 19 20 20 20 20 19 19 18 17 17 17 17 17 16 16 16 16 15 15 15 15 15 15 15 15 16 16 16 16 16 16
39 39 38 37 36 35 35 34 33 33 32 31 30 29 29 28 28 28 28 28 28 28 28 27 27 27 27 27 26 26 25 24 24 23 23 22 22 21 20 20 20 20 20 21 21 22 22 22 22 21 20 20 20 20 20 20 20 20 20 19 19 18 17 16 16 16 17 17 16 16 16 15 15 15 15 14 14 14 15 15 15 16 16 16 16 16
40 40 40 39 38 37 36 35 34 33 32 31 30 29 28 28 28 27 27 27 27 27 27 27 28 28 29 29 28 27 26 25 25 24 24 23 22 22 21 21 21 21 21 21 21 21 21 21 21 21 21 21 21 21 20 20 20 20 19 19 19 19 18 17 16 16 17 17 16 16 16 15 15 14 14 14 14 14 14 15 15 15 16 16 16 16
41 41 41 40 39 37 36 35 34 33 32 31 30 29 28 28 27 27 27 27 27 27 27 28 29 29 30 30 29 28 27 27 26 25 25 24 23 22 22 22 22 22 22 22 22 22 22 21 20 20 20 21 21 20 20 20 20 19 19 19 19 19 18 17 16 16 16 16 16 16 15 14 14 14 13 13 13 13 14 14 15 15 16 16 16 16
42 42 41 41 39 38 36 35 34 33 32 30 29 28 28 27 27 27 27 27 27 27 27 28 30 31 31 30 29 28 27 27 26 26 25 24 24 23 23 23 23 23 23 23 23 23 23 22 21 21 20 20 20 19 19 19 19 19 19 19 19 18 18 17 16 15 15 15 15 14 14 14 13 13 13 13 13 13 14 14 15 15 15 16 16 16
42 42 42 41 39 38 36 35 34 33 31 30 29 28 27 27 26 26 26 26 27 27 28 29 30 31 31 30 29 28 27 26 26 26 25 24 24 24 24 24 24 24 24 23 23 23 23 22 22 21 21 20 19 19 18 18 19 19 19 19 19 18 18 17 16 15 15 14 14 13 13 13 13 14 14 14 14 14 14 14 14 15 15 15 15 15
41 42 42 41 40 38 36 35 34 32 31 30 29 28 27 26 26 26 26 26 26 27 28 29 30 31 31 30 29 28 27 27 26 26 25 25 24 24 24 24 24 24 24 24 23 23 22 22 21 21 21 20 20 19 18 18 18 19 19 19 19 18 18 17 17 16 14 14 13 13 13 14 14 14 14 14 14 13 13 14 14 14 14 15 15 15
41 42 42 41 40 38 36 35 33 32 31 30 29 28 27 26 25 25 25 26 26 26 27 28 29 30 30 30 29 28 28 27 27 26 26 25 25 24 25 25 25 25 25 25 24 23 23 22 21 21 21 20 20 20 19 19 19 19 19 19 19 18 18 17 16 15 14 14 14 14 14 14 15 15 14 14 14 13 13 13 13 14 14 14 14 14
Wind_Direction
273 273 272 271 269 269 270 271 271 272 271 270 270 270 271 272 272 272 271 271 270 270 269 269 268 265 261 253 246 242 241 241 242 244 245 244 242 240 239 240 241 243 245 248 251 254 257 259 261 262 261 258 255 253 252 250 248 245 242 238 235 231 228 227 230 233 235 233 231 228 226 226 227 228 229 229 232 238 243 247 248 246 240 236 234 236
271 271 271 272 272 273 273 273 273 272 271 270 269 269 269 269 269 269 268 267 266 265 265 264 263 262 258 252 246 242 241 243 244 246 246 245 243 240 240 240 242 244 246 249 251 254 256 259 260 260 259 257 255 252 251 249 247 245 241 239 236 234 231 230 231 234 236 237 238 237 235 234 234 235 233 231 230 234 239 243 245 244 241 239 239 240
272 272 273 275 276 276 276 276 275 273 271 269 268 268 268 267 267 266 264 263 262 261 261 260 260 260 259 255 248 243 242 243 245 247 247 246 244 243 242 243 245 247 249 251 253 255 257 258 259 259 258 256 254 252 251 249 247 244 242 239 236 233 231 228 229 232 235 237 238 239 240 240 241 241 240 235 232 233 237 241 245 246 246 246 245 245
273 273 274 276 277 277 277 277 275 272 270 269 268 267 267 266 264 263 262 261 260 258 257 256 257 259 261 260 255 248 242 241 243 244 244 243 243 243 245 247 250 252 254 255 256 257 257 258 259 259 258 256 254 252 251 249 247 245 242 238 234 230 227 226 228 232 235 238 240 241 242 242 243 244 244 242 240 238 240 243 246 250 252 253 251 249
273 274 275 276 276 277 277 275 273 271 270 269 268 267 266 264 263 261 260 259 258 257 256 255 256 259 262 264 263 255 245 240 240 241 242 242 241 242 244 248 252 255 257 258 259 259 258 259 259 259 258 256 254 252 251 249 247 245 242 238 233 230 229 230 232 235 238 240 243 245 246 246 246 246 246 247 247 247 248 249 250 253 256 257 255 250
274 275 276 276 276 276 276 274 272 270 269 268 266 264 263 262 259 258 256 256 256 256 255 256 257 259 262 265 264 260 250 243 240 240 241 242 242 243 244 247 250 254 256 258 259 259 259 259 259 259 258 257 255 253 251 249 247 245 242 238 234 232 233 235 237 239 241 243 246 249 250 250 249 247 247 247 249 251 252 253 254 254 255 254 252 248
275 276 277 277 277 277 276 274 272 270 268 266 262 259 257 256 254 252 252 252 253 254 256 257 258 260 261 262 261 258 251 245 242 241 241 242 243 243 244 246 249 251 254 255 257 257 258 259 260 260 259 258 255 253 251 249 246 244 241 238 235 233 234 237 239 240 242 245 248 250 252 251 249 247 245 245 246 247 249 250 250 250 249 247 245 241
274 275 276 276 277 276 275 274 272 270 268 265 261 257 255 253 252 250 250 250 251 254 256 258 258 259 258 257 255 252 248 245 243 242 242 242 242 243 244 245 247 249 251 253 255 256 257 258 259 260 259 258 256 253 250 248 245 242 239 237 235 234 234 236 238 240 242 244 247 249 249 249 246 244 242 241 242 242 242 243 242 242 241 239 237 235
272 273 274 275 275 274 274 272 271 269 267 264 262 259 257 256 254 252 251 251 251 253 255 256 257 257 256 255 253 249 246 243 243 243 243 243 243 243 243 244 246 248 250 252 254 255 256 257 258 259 259 258 256 253 250 247 243 240 237 235 235 234 234 235 237 239 240 242 244 245 245 245 243 241 240 239 239 239 239 239 238 238 237 236 235 234
271 271 272 273 273 272 271 270 269 267 265 263 261 260 259 258 257 256 254 253 252 252 253 253 255 256 256 254 252 248 245 243 243 243 244 245 245 245 245 246 247 248 250 252 253 255 256 257 257 258 258 258 256 253 249 246 242 239 236 235 234 234 235 236 237 238 239 240 240 241 242 242 242 241 241 240 240 240 240 240 240 240 239 239 238 238
270 270 270 270 270 270 269 268 268 267 265 262 260 259 256 256 256 257 256 254 252 251 252 253 254 256 257 255 250 246 243 241 241 242 244 245 245 245 246 247 248 249 251 252 253 255 256 256 257 258 259 258 256 253 249 246 242 238 236 235 234 234 234 235 236 237 237 237 238 239 241 242 244 244 245 245 245 245 245 246 245 245 244 243 243 243
268 268 268 267 266 266 264 264 266 266 263 260 260 258 255 253 253 255 257 255 254 254 255 256 256 256 255 252 247 243 240 239 239 239 241 242 243 244 245 246 247 249 250 252 253 254 255 256 257 259 260 260 258 254 250 246 241 238 236 235 235 234 234 234 234 235 236 237 238 240 243 245 247 248 249 250 250 250 250 250 250 249 249 248 247 247
266 266 266 265 263 262 260 259 259 259 258 257 257 257 256 255 255 256 257 257 257 257 258 258 257 255 252 248 243 239 238 238 238 239 240 241 242 242 243 244 245 247 249 250 252 253 255 256 258 260 261 261 259 256 251 246 241 238 236 235 234 234 234 234 235 236 237 239 241 244 247 249 251 252 253 254 254 254 254 253 253 252 251 250 249 249
265 264 263 260 258 258 257 255 255 255 255 255 255 256 258 259 258 258 259 260 258 257 257 258 256 253 248 244 240 238 236 237 238 239 240 240 241 242 243 244 245 247 248 250 251 253 255 256 258 260 262 262 260 256 251 246 241 237 235 234 234 234 234 235 237 239 241 244 247 249 251 253 254 255 256 256 256 256 256 255 254 253 252 251 249 249
263 262 260 257 255 254 253 253 252 252 253 254 255 257 257 258 257 258 259 259 259 257 256 255 253 249 245 241 238 236 235 235 237 238 239 240 241 242 243 244 246 247 248 250 251 253 255 257 259 261 262 262 260 255 250 244 239 236 234 233 233 234 235 237 240 243 246 249 251 253 255 256 257 257 258 258 258 257 257 256 254 253 251 250 248 247
264 261 258 256 255 253 253 253 252 252 252 253 254 254 254 255 256 256 257 258 258 257 253 250 247 243 240 238 237 236 234 235 236 237 239 240 241 242 243 243 245 246 248 249 251 253 255 257 259 261 262 261 259 254 248 243 238 236 234 234 235 236 238 240 244 247 250 253 255 256 257 258 259 259 258 258 258 258 257 255 254 251 249 247 245 244
264 261 258 257 255 254 255 254 253 253 252 252 252 252 252 253 254 255 256 257 257 256 252 247 243 238 234 233 234 235 235 235 236 237 239 240 241 242 243 243 244 246 248 249 251 253 255 257 259 260 261 260 256 251 245 241 238 236 235 236 237 239 241 244 247 250 253 255 257 258 259 259 259 259 258 258 258 257 256 254 252 249 246 243 241 239
263 260 257 256 255 256 256 256 255 253 252 251 251 251 252 253 254 254 254 255 255 255 252 247 243 240 236 231 231 234 237 235 235 237 238 239 240 241 243 243 243 245 247 249 251 253 254 256 258 260 260 257 253 248 243 239 237 236 237 238 239 242 244 247 250 253 255 257 258 259 259 259 259 258 257 257 256 255 254 251 248 245 241 239 236 235
263 260 257 255 255 256 257 257 256 254 252 251 252 254 255 254 254 253 253 253 253 254 253 250 247 244 244 240 238 238 240 237 236 235 236 237 238 240 242 242 243 244 246 248 250 252 254 256 257 258 257 254 250 245 241 238 237 237 238 239 241 244 247 250 252 254 256 258 258 259 259 258 257 256 255 254 253 252 250 247 243 240 236 233 231 230
262 260 257 255 255 255 256 257 256 255 254 254 254 256 257 255 254 253 252 252 253 253 253 252 250 248 248 247 246 243 240 239 236 234 235 236 237 239 241 241 242 243 245 247 249 252 254 255 256 256 254 251 247 244 241 239 237 238 239 241 243 246 249 252 254 256 257 257 258 258 257 256 254 253 251 250 249 247 244 241 238 234 231 229 227 225
260 259 258 257 255 255 256 257 259 259 259 258 257 257 257 256 254 253 253 252 253 253 253 252 251 250 250 250 249 245 242 238 234 233 234 235 236 238 240 241 242 243 244 246 248 251 253 254 255 255 253 249 246 244 242 240 239 239 240 242 245 248 250 253 255 256 257 257 257 256 255 253 251 249 247 246 244 241 239 236 232 230 227 225 223 221
257 257 258 257 256 256 257 259 261 262 262 260 258 257 256 256 256 255 254 254 254 254 254 253 252 250 250 250 250 248 245 241 237 236 236 235 235 236 239 240 241 243 244 246 247 249 251 253 254 253 251 249 246 245 243 242 242 242 243 245 247 250 253 254 255 256 256 255 255 254 252 250 247 245 243 241 239 236 234 231 228 226 223 221 219 218
258 257 257 256 255 256 257 259 261 262 261 260 258 257 257 257 258 258 258 258 258 257 256 255 252 251 249 249 249 247 245 242 240 238 236 235 235 237 238 240 240 242 244 245 246 247 249 251 252 251 249 248 246 245 245 245 244 245 246 248 251 253 255 256 256 256 255 254 253 251 249 246 244 241 239 237 235 232 230 227 225 222 220 218 216 215
260 258 256 254 254 255 255 257 258 259 260 260 259 259 258 258 259 259 258 258 258 257 256 254 252 250 247 247 246 245 243 241 239 236 235 237 238 239 239 239 240 241 243 244 245 246 248 249 249 249 248 246 246 245 246 246 246 247 249 251 253 256 257 258 257 255 254 252 250 248 245 242 240 237 235 233 231 229 227 225 222 220 217 215 214 214
261 259 256 255 254 253 253 254 255 257 258 259 259 259 258 259 258 257 255 254 252 251 250 249 248 246 244 243 242 242 241 240 238 236 235 236 238 239 239 239 239 240 242 243 244 245 246 247 247 247 246 245 245 245 246 246 246 248 249 252 255 257 258 258 256 254 252 250 247 245 242 239 236 234 231 229 227 226 224 222 220 217 215 213 212 212
261 259 257 255 252 251 250 250 252 254 256 257 257 257 257 257 257 255 252 250 247 245 244 244 243 243 242 240 240 239 238 238 237 236 235 235 237 238 238 238 238 239 241 242 243 243 244 245 245 245 244 244 245 245 245 245 246 247 250 252 254 256 257 256 254 252 250 247 244 242 238 235 233 231 229 226 224 223 222 220 218 215 213 211 211 211
259 257 255 252 250 248 247 247 249 251 253 254 255 255 255 256 254 251 248 246 244 243 241 240 240 240 239 238 238 238 237 236 235 235 235 235 236 237 238 237 236 237 238 240 241 241 242 243 244 243 243 244 244 244 243 244 245 246 249 251 253 254 254 253 251 249 247 244 242 239 236 233 231 228 226 224 222 220 219 217 216 214 212 211 210 210
258 256 253 250 247 245 244 245 246 248 250 252 253 253 253 253 251 248 247 246 244 242 241 240 240 239 238 238 238 237 236 235 234 234 233 233 234 236 237 236 235 235 235 237 238 239 240 241 241 242 242 242 242 242 242 242 243 245 247 249 251 251 251 249 247 245 242 240 238 236 233 231 229 226 224 221 219 218 217 215 214 213 212 210 209 209
257 255 253 249 246 244 243 243 244 245 247 249 250 251 251 250 249 248 248 247 246 244 242 241 241 240 240 239 239 238 236 235 234 233 232 231 232 235 236 235 233 232 232 233 234 235 237 238 239 239 240 240 240 240 239 240 241 243 245 247 248 248 247 245 243 240 238 236 234 232 231 229 227 225 222 219 217 216 215 214 214 213 212 210 209 208
257 255 253 250 247 244 242 242 242 243 245 246 248 249 249 249 249 249 249 248 247 245 244 243 242 242 241 240 238 237 236 235 234 232 231 230 232 234 234 232 231 230 230 229 230 231 234 236 237 237 237 238 238 237 237 238 240 242 243 245 245 245 243 241 238 236 234 232 231 229 228 227 225 223 220 218 216 215 214 214 214 213 211 210 209 209
258 256 254 251 249 246 244 242 242 243 243 245 246 247 247 247 248 248 248 247 246 246 245 245 244 243 242 240 238 236 237 236 235 233 231 230 233 235 235 232 230 230 229 228 227 229 232 235 237 237 236 236 236 236 237 238 240 241 242 242 242 241 239 236 234 232 230 228 227 226 225 224 222 220 218 216 215 215 215 215 215 213 212 210 210 210
261 258 256 253 250 248 246 244 243 243 243 243 244 244 245 245 246 246 246 246 245 245 245 245 245 245 245 244 243 243 244 242 239 236 233 231 234 237 237 233 231 230 230 229 229 230 232 236 237 237 236 235 235 236 236 238 239 240 240 239 238 237 234 232 229 227 226 225 223 223 222 221 220 218 216 215 215 215 215 216 216 214 212 211 211 212
261 259 256 253 250 248 247 246 245 244 243 242 242 242 243 244 244 245 245 245 245 245 245 245 245 246 246 246 246 247 248 247 244 239 236 234 235 236 237 235 232 230 230 229 229 230 232 236 238 238 236 235 235 236 236 237 238 238 237 236 234 232 229 227 226 224 223 222 221 220 220 219 218 216 215 215 214 215 216 217 217 215 213 212 212 213
259 258 255 252 249 247 246 245 245 244 243 242 241 241 241 242 243 243 244 245 246 245 245 245 245 246 247 246 245 245 246 246 244 241 238 237 237 237 238 235 233 231 229 228 228 229 230 234 236 237 236 235 235 235 236 236 236 236 234 232 229 227 225 223 222 222 221 220 219 218 218 217 216 215 215 215 215 216 217 218 218 217 215 213 214 215
258 256 254 251 248 245 244 244 244 243 243 242 241 240 240 241 242 243 244 245 245 246 246 246 246 247 248 247 247 246 245 245 244 241 239 237 237 238 238 237 235 233 230 229 229 229 230 233 235 236 235 235 234 234 234 233 233 232 230 228 225 222 221 220 220 219 219 219 219 218 217 216 216 216 216 216 217 218 219 220 220 219 218 216 216 216
257 255 253 250 247 245 243 243 242 242 242 241 240 239 240 240 241 242 243 244 245 245 245 245 245 245 246 247 248 248 248 248 246 243 239 238 237 237 237 236 235 234 232 231 230 231 232 234 235 235 235 234 234 232 231 230 229 228 226 223 221 219 218 217 217 218 218 219 219 219 217 217 217 217 217 218 219 220 221 222 223 222 221 220 219 219
255 254 253 250 247 245 243 242 242 241 241 241 240 239 239 240 241 242 243 243 244 244 243 243 243 243 243 243 243 244 245 245 244 241 237 235 234 234 234 235 234 233 233 233 232 233 234 234 235 234 233 233 233 232 230 228 226 224 222 219 217 216 215 215 214 215 216 217 218 218 216 216 217 218 218 219 220 221 223 224 225 225 225 225 224 224
254 253 252 250 247 245 243 242 242 241 241 241 241 240 239 240 240 241 241 241 241 241 241 240 240 239 239 239 238 237 235 234 233 231 228 227 227 229 230 231 231 231 232 233 234 235 234 233 233 232 231 231 230 230 229 227 224 221 219 217 215 214 214 213 212 212 213 214 214 214 214 215 216 217 219 220 221 222 224 225 227 228 229 229 229 228
252 252 251 250 248 245 244 243 242 242 242 242 241 240 240 240 240 241 240 240 239 238 237 237 236 236 235 235 233 232 229 227 224 221 219 219 221 223 225 227 228 228 229 230 232 233 234 233 233 232 231 230 229 227 226 225 224 221 218 215 214 213 212 212 211 211 211 211 212 212 213 214 215 217 218 220 221 222 224 225 228 230 231 232 232 232
251 251 251 250 249 247 245 244 244 243 243 242 241 240 240 239 239 239 238 237 236 235 234 234 233 233 232 231 230 229 227 224 221 218 216 216 218 220 223 225 226 226 226 226 227 228 229 230 231 232 232 232 230 226 223 222 221 219 217 215 212 211 210 210 210 210 210 210 210 211 212 213 215 217 219 220 222 223 224 226 228 230 232 232 233 233
250 250 251 251 250 248 247 246 245 244 243 243 242 240 239 238 238 237 236 235 234 233 232 231 230 230 230 229 228 227 225 223 221 219 218 217 219 221 223 225 226 225 225 224 224 224 224 225 226 227 227 228 227 225 223 220 218 217 216 215 213 211 209 209 209 209 209 209 209 210 212 213 215 217 219 221 222 224 225 227 228 230 232 233 233 233
249 250 251 251 250 249 248 246 245 244 244 243 242 240 239 237 236 234 233 232 232 231 230 229 228 228 228 227 227 226 224 222 221 220 220 221 222 224 225 226 226 225 223 221 220 220 220 220 221 222 221 220 220 219 219 218 217 216 215 215 213 211 210 209 208 207 208 208 208 210 211 213 215 217 219 221 222 223 225 227 229 231 232 233 234 235
249 250 250 250 249 248 247 246 245 244 244 243 241 239 237 236 235 234 233 232 231 231 230 229 228 227 227 226 226 225 223 222 221 220 221 223 224 226 226 226 225 223 221 219 217 216 216 217 218 218 217 215 214 214 214 213 214 214 213 212 210 209 209 207 205 205 206 207 208 209 211 213 215 217 219 220 222 223 225 228 230 232 234 235 236 236
249 249 249 248 248 248 247 246 245 244 243 241 239 237 236 235 233 233 232 232 232 232 231 230 229 228 227 226 225 223 222 221 220 219 220 222 224 225 226 225 223 221 220 217 215 213 212 213 214 215 213 213 211 210 210 211 212 213 212 210 208 208 208 205 204 204 205 206 208 209 211 213 214 216 218 220 221 223 226 228 231 233 235 236 237 237
247 247 247 247 247 246 245 245 244 243 242 240 238 236 235 233 232 231 231 231 232 232 232 231 229 228 227 226 225 223 221 220 219 220 220 221 223 223 223 222 221 219 218 217 215 213 212 212 212 211 210 210 209 208 208 209 211 212 211 209 208 206 205 203 203 204 206 207 208 209 211 212 214 217 218 220 222 224 226 228 231 233 235 236 236 236
245 245 245 245 245 245 245 245 244 242 240 239 237 236 235 233 232 230 230 230 230 231 231 231 230 229 227 226 224 222 220 219 219 219 220 220 221 221 220 219 218 216 215 214 213 213 213 213 213 212 211 210 209 207 206 206 208 210 210 209 208 206 204 203 202 203 204 206 207 209 211 213 215 217 219 221 222 224 226 228 229 231 233 234 235 235
242 243 244 244 245 244 244 244 242 241 239 238 237 236 236 234 232 230 229 228 228 228 229 230 230 230 229 227 225 222 220 219 219 219 219 219 219 218 217 216 215 214 213 211 210 209 209 210 211 212 212 211 209 207 204 204 206 207 209 209 208 207 206 205 203 203 204 206 207 210 212 215 218 220 222 223 224 225 226 227 228 230 231 232 233 233
242 242 243 243 243 243 242 242 241 240 238 238 238 238 237 235 233 229 227 226 226 225 226 228 229 229 229 228 226 224 222 221 221 220 219 219 218 217 215 214 212 212 211 210 208 207 207 206 206 208 210 211 210 207 203 203 203 205 206 207 208 208 208 206 205 205 206 207 209 212 215 218 221 224 225 227 227 227 227 227 228 229 230 231 231 231
242 242 242 242 241 241 241 241 241 240 238 238 239 239 238 236 233 230 227 226 224 223 224 226 227 227 227 226 225 224 223 223 223 222 221 219 218 216 214 212 211 209 208 208 207 207 206 205 205 205 205 207 209 208 204 202 202 203 204 206 207 208 208 207 207 207 207 209 212 215 219 222 225 226 228 229 230 230 229 229 229 229 230 230 230 230
240 240 240 240 240 240 240 241 241 240 239 240 240 240 238 235 232 230 228 226 224 223 223 225 226 226 226 224 223 222 221 221 221 221 220 219 218 216 214 212 210 208 206 205 204 204 204 204 205 205 205 204 205 205 204 202 201 202 203 205 206 206 207 207 207 207 208 211 215 219 222 225 227 229 230 230 231 231 231 230 229 229 229 229 228 228
238 238 238 238 238 239 240 241 241 240 240 241 242 241 239 235 231 228 226 224 223 222 223 224 225 225 225 224 223 221 221 220 220 219 219 218 217 215 213 211 209 206 204 202 201 200 201 202 203 205 206 205 204 203 203 202 201 201 203 204 205 205 206 207 207 208 210 214 217 221 224 227 228 230 231 232 232 232 231 230 229 228 228 227 226 226